owner,sensor,date,latitude,longitude,relative_humidity,qcFlag 
DISL,ioos:station:DISL:PPTA:1,2013-06-01T00:00:00Z,30.2791,-87.5561,78.62,1111122 
DISL,ioos:station:DISL:PPTA:1,2013-06-01T00:30:00Z,30.2791,-87.5561,79.68,1111122 
DISL,ioos:station:DISL:PPTA:1,2013-06-01T01:00:00Z,30.2791,-87.5561,80.9,1111122 
DISL,ioos:station:DISL:PPTA:1,2013-06-01T01:30:00Z,30.2791,-87.5561,81.3,1111122 
DISL,ioos:station:DISL:PPTA:1,2013-06-01T02:00:00Z,30.2791,-87.5561,81.9,1111122 
DISL,ioos:station:DISL:PPTA:1,2013-06-01T02:30:00Z,30.2791,-87.5561,82.3,1111122 
DISL,ioos:station:DISL:PPTA:1,2013-06-01T03:00:00Z,30.2791,-87.5561,82.1,1111122 
DISL,ioos:station:DISL:PPTA:1,2013-06-01T03:30:00Z,30.2791,-87.5561,82.3,1111122 
DISL,ioos:station:DISL:PPTA:1,2013-06-01T04:00:00Z,30.2791,-87.5561,81.9,1111122 
DISL,ioos:station:DISL:PPTA:1,2013-06-01T04:30:00Z,30.2791,-87.5561,82.2,1111122 
DISL,ioos:station:DISL:PPTA:1,2013-06-01T05:00:00Z,30.2791,-87.5561,83.0,1111122 
DISL,ioos:station:DISL:PPTA:1,2013-06-01T05:30:00Z,30.2791,-87.5561,83.3,1111122 
DISL,ioos:station:DISL:PPTA:1,2013-06-01T06:00:00Z,30.2791,-87.5561,82.9,1111122 
DISL,ioos:station:DISL:PPTA:1,2013-06-01T06:30:00Z,30.2791,-87.5561,82.5,1111122 
DISL,ioos:station:DISL:PPTA:1,2013-06-01T07:00:00Z,30.2791,-87.5561,83.0,1111122 
DISL,ioos:station:DISL:PPTA:1,2013-06-01T07:30:00Z,30.2791,-87.5561,84.0,1111122 
DISL,ioos:station:DISL:PPTA:1,2013-06-01T08:00:00Z,30.2791,-87.5561,84.1,1111122 
DISL,ioos:station:DISL:PPTA:1,2013-06-01T08:30:00Z,30.2791,-87.5561,83.8,1111122 
DISL,ioos:station:DISL:PPTA:1,2013-06-01T09:00:00Z,30.2791,-87.5561,84.0,1111122 
DISL,ioos:station:DISL:PPTA:1,2013-06-01T09:30:00Z,30.2791,-87.5561,83.3,1111122 
DISL,ioos:station:DISL:PPTA:1,2013-06-01T10:00:00Z,30.2791,-87.5561,83.6,1111122 
DISL,ioos:station:DISL:PPTA:1,2013-06-01T10:30:00Z,30.2791,-87.5561,83.6,1111122 
DISL,ioos:station:DISL:PPTA:1,2013-06-01T11:00:00Z,30.2791,-87.5561,82.6,1111122 
DISL,ioos:station:DISL:PPTA:1,2013-06-01T11:30:00Z,30.2791,-87.5561,84.2,1111122 
DISL,ioos:station:DISL:PPTA:1,2013-06-01T12:00:00Z,30.2791,-87.5561,83.6,1111122 
DISL,ioos:station:DISL:PPTA:1,2013-06-01T12:30:00Z,30.2791,-87.5561,85.9,1111122 
DISL,ioos:station:DISL:PPTA:1,2013-06-01T13:00:00Z,30.2791,-87.5561,84.6,1111122 
DISL,ioos:station:DISL:PPTA:1,2013-06-01T13:30:00Z,30.2791,-87.5561,82.8,1111122 
DISL,ioos:station:DISL:PPTA:1,2013-06-01T14:00:00Z,30.2791,-87.5561,80.3,1111122 
DISL,ioos:station:DISL:PPTA:1,2013-06-01T14:30:00Z,30.2791,-87.5561,80.5,1111122 
DISL,ioos:station:DISL:PPTA:1,2013-06-01T15:00:00Z,30.2791,-87.5561,80.2,1111122 
DISL,ioos:station:DISL:PPTA:1,2013-06-01T15:30:00Z,30.2791,-87.5561,80.1,1111122 
DISL,ioos:station:DISL:PPTA:1,2013-06-01T16:00:00Z,30.2791,-87.5561,79.52,1111122 
DISL,ioos:station:DISL:PPTA:1,2013-06-01T16:30:00Z,30.2791,-87.5561,78.14,1111122 
DISL,ioos:station:DISL:PPTA:1,2013-06-01T17:00:00Z,30.2791,-87.5561,77.24,1111122 
DISL,ioos:station:DISL:PPTA:1,2013-06-01T17:30:00Z,30.2791,-87.5561,77.82,1111122 
DISL,ioos:station:DISL:PPTA:1,2013-06-01T18:00:00Z,30.2791,-87.5561,77.38,1111122 
DISL,ioos:station:DISL:PPTA:1,2013-06-01T18:30:00Z,30.2791,-87.5561,78.64,1111122 
DISL,ioos:station:DISL:PPTA:1,2013-06-01T19:00:00Z,30.2791,-87.5561,77.35,1111122 
DISL,ioos:station:DISL:PPTA:1,2013-06-01T19:30:00Z,30.2791,-87.5561,79.73,1111122 
DISL,ioos:station:DISL:PPTA:1,2013-06-01T20:00:00Z,30.2791,-87.5561,77.81,1111122 
DISL,ioos:station:DISL:PPTA:1,2013-06-01T20:30:00Z,30.2791,-87.5561,79.04,1111122 
DISL,ioos:station:DISL:PPTA:1,2013-06-01T21:00:00Z,30.2791,-87.5561,75.94,1111122 
DISL,ioos:station:DISL:PPTA:1,2013-06-01T21:30:00Z,30.2791,-87.5561,77.78,1111122 
DISL,ioos:station:DISL:PPTA:1,2013-06-01T22:00:00Z,30.2791,-87.5561,78.66,1111122 
DISL,ioos:station:DISL:PPTA:1,2013-06-01T22:30:00Z,30.2791,-87.5561,79.92,1111122 
DISL,ioos:station:DISL:PPTA:1,2013-06-01T23:00:00Z,30.2791,-87.5561,80.9,1111122 
DISL,ioos:station:DISL:PPTA:1,2013-06-01T23:30:00Z,30.2791,-87.5561,81.2,1111122 
DISL,ioos:station:DISL:PPTA:1,2013-06-02T00:00:00Z,30.2791,-87.5561,82.1,1111122 
DISL,ioos:station:DISL:PPTA:1,2013-06-02T00:30:00Z,30.2791,-87.5561,83.4,1111122 
DISL,ioos:station:DISL:PPTA:1,2013-06-02T01:00:00Z,30.2791,-87.5561,84.4,1111122 
DISL,ioos:station:DISL:PPTA:1,2013-06-02T01:30:00Z,30.2791,-87.5561,84.0,1111122 
DISL,ioos:station:DISL:PPTA:1,2013-06-02T02:00:00Z,30.2791,-87.5561,84.4,1111122 
DISL,ioos:station:DISL:PPTA:1,2013-06-02T02:30:00Z,30.2791,-87.5561,84.7,1111122 
DISL,ioos:station:DISL:PPTA:1,2013-06-02T03:00:00Z,30.2791,-87.5561,84.8,1111122 
DISL,ioos:station:DISL:PPTA:1,2013-06-02T03:30:00Z,30.2791,-87.5561,84.4,1111122 
DISL,ioos:station:DISL:PPTA:1,2013-06-02T04:00:00Z,30.2791,-87.5561,84.7,1111122 
DISL,ioos:station:DISL:PPTA:1,2013-06-02T04:30:00Z,30.2791,-87.5561,84.8,1111122 
DISL,ioos:station:DISL:PPTA:1,2013-06-02T05:00:00Z,30.2791,-87.5561,85.6,1111122 
DISL,ioos:station:DISL:PPTA:1,2013-06-02T05:30:00Z,30.2791,-87.5561,86.0,1111122 
DISL,ioos:station:DISL:PPTA:1,2013-06-02T06:00:00Z,30.2791,-87.5561,86.2,1111122 
DISL,ioos:station:DISL:PPTA:1,2013-06-02T06:30:00Z,30.2791,-87.5561,86.4,1111122 
DISL,ioos:station:DISL:PPTA:1,2013-06-02T07:00:00Z,30.2791,-87.5561,86.6,1111122 
DISL,ioos:station:DISL:PPTA:1,2013-06-02T07:30:00Z,30.2791,-87.5561,86.2,1111122 
DISL,ioos:station:DISL:PPTA:1,2013-06-02T08:00:00Z,30.2791,-87.5561,86.2,1111122 
DISL,ioos:station:DISL:PPTA:1,2013-06-02T08:30:00Z,30.2791,-87.5561,85.9,1111122 
DISL,ioos:station:DISL:PPTA:1,2013-06-02T09:00:00Z,30.2791,-87.5561,85.6,1111122 
DISL,ioos:station:DISL:PPTA:1,2013-06-02T09:30:00Z,30.2791,-87.5561,85.6,1111122 
DISL,ioos:station:DISL:PPTA:1,2013-06-02T10:00:00Z,30.2791,-87.5561,85.3,1111122 
DISL,ioos:station:DISL:PPTA:1,2013-06-02T10:30:00Z,30.2791,-87.5561,87.4,1111122 
DISL,ioos:station:DISL:PPTA:1,2013-06-02T11:00:00Z,30.2791,-87.5561,90.1,1111122 
DISL,ioos:station:DISL:PPTA:1,2013-06-02T11:30:00Z,30.2791,-87.5561,90.7,1111122 
DISL,ioos:station:DISL:PPTA:1,2013-06-02T12:00:00Z,30.2791,-87.5561,90.7,1111122 
DISL,ioos:station:DISL:PPTA:1,2013-06-02T12:30:00Z,30.2791,-87.5561,89.7,1111122 
DISL,ioos:station:DISL:PPTA:1,2013-06-02T13:00:00Z,30.2791,-87.5561,85.5,1111122 
DISL,ioos:station:DISL:PPTA:1,2013-06-02T13:30:00Z,30.2791,-87.5561,82.5,1111122 
DISL,ioos:station:DISL:PPTA:1,2013-06-02T14:00:00Z,30.2791,-87.5561,76.76,1111122 
DISL,ioos:station:DISL:PPTA:1,2013-06-02T14:30:00Z,30.2791,-87.5561,68.79,1111122 
DISL,ioos:station:DISL:PPTA:1,2013-06-02T15:00:00Z,30.2791,-87.5561,68.78,1111122 
DISL,ioos:station:DISL:PPTA:1,2013-06-02T15:30:00Z,30.2791,-87.5561,70.27,1111122 
DISL,ioos:station:DISL:PPTA:1,2013-06-02T16:00:00Z,30.2791,-87.5561,70.91,1111122 
DISL,ioos:station:DISL:PPTA:1,2013-06-02T16:30:00Z,30.2791,-87.5561,71.28,1111122 
DISL,ioos:station:DISL:PPTA:1,2013-06-02T17:00:00Z,30.2791,-87.5561,71.58,1111122 
DISL,ioos:station:DISL:PPTA:1,2013-06-02T17:30:00Z,30.2791,-87.5561,70.9,1111122 
DISL,ioos:station:DISL:PPTA:1,2013-06-02T18:00:00Z,30.2791,-87.5561,70.76,1111122 
DISL,ioos:station:DISL:PPTA:1,2013-06-02T18:30:00Z,30.2791,-87.5561,70.16,1111122 
DISL,ioos:station:DISL:PPTA:1,2013-06-02T19:00:00Z,30.2791,-87.5561,69.48,1111122 
DISL,ioos:station:DISL:PPTA:1,2013-06-02T19:30:00Z,30.2791,-87.5561,69.35,1111122 
DISL,ioos:station:DISL:PPTA:1,2013-06-02T20:00:00Z,30.2791,-87.5561,70.4,1111122 
DISL,ioos:station:DISL:PPTA:1,2013-06-02T20:30:00Z,30.2791,-87.5561,70.79,1111122 
DISL,ioos:station:DISL:PPTA:1,2013-06-02T21:00:00Z,30.2791,-87.5561,71.35,1111122 
DISL,ioos:station:DISL:PPTA:1,2013-06-02T21:30:00Z,30.2791,-87.5561,70.8,1111122 
DISL,ioos:station:DISL:PPTA:1,2013-06-02T22:00:00Z,30.2791,-87.5561,71.99,1111122 
DISL,ioos:station:DISL:PPTA:1,2013-06-02T22:30:00Z,30.2791,-87.5561,74.99,1111122 
DISL,ioos:station:DISL:PPTA:1,2013-06-02T23:00:00Z,30.2791,-87.5561,74.16,1111122 
DISL,ioos:station:DISL:PPTA:1,2013-06-02T23:30:00Z,30.2791,-87.5561,75.87,1111122 
DISL,ioos:station:DISL:PPTA:1,2013-06-03T00:00:00Z,30.2791,-87.5561,77.68,1111122 
DISL,ioos:station:DISL:PPTA:1,2013-06-03T00:30:00Z,30.2791,-87.5561,79.69,1111122 
DISL,ioos:station:DISL:PPTA:1,2013-06-03T01:00:00Z,30.2791,-87.5561,78.55,1111122 
DISL,ioos:station:DISL:PPTA:1,2013-06-03T01:30:00Z,30.2791,-87.5561,80.2,1111122 
DISL,ioos:station:DISL:PPTA:1,2013-06-03T02:00:00Z,30.2791,-87.5561,81.5,1111122 
DISL,ioos:station:DISL:PPTA:1,2013-06-03T02:30:00Z,30.2791,-87.5561,80.6,1111122 
DISL,ioos:station:DISL:PPTA:1,2013-06-03T03:00:00Z,30.2791,-87.5561,83.3,1111122 
DISL,ioos:station:DISL:PPTA:1,2013-06-03T03:30:00Z,30.2791,-87.5561,83.7,1111122 
DISL,ioos:station:DISL:PPTA:1,2013-06-03T04:00:00Z,30.2791,-87.5561,82.6,1111122 
DISL,ioos:station:DISL:PPTA:1,2013-06-03T04:30:00Z,30.2791,-87.5561,78.58,1111122 
DISL,ioos:station:DISL:PPTA:1,2013-06-03T05:00:00Z,30.2791,-87.5561,80.4,1111122 
DISL,ioos:station:DISL:PPTA:1,2013-06-03T05:30:00Z,30.2791,-87.5561,82.2,1111122 
DISL,ioos:station:DISL:PPTA:1,2013-06-03T06:00:00Z,30.2791,-87.5561,83.0,1111122 
DISL,ioos:station:DISL:PPTA:1,2013-06-03T06:30:00Z,30.2791,-87.5561,82.8,1111122 
DISL,ioos:station:DISL:PPTA:1,2013-06-03T07:00:00Z,30.2791,-87.5561,82.6,1111122 
DISL,ioos:station:DISL:PPTA:1,2013-06-03T07:30:00Z,30.2791,-87.5561,81.9,1111122 
DISL,ioos:station:DISL:PPTA:1,2013-06-03T08:00:00Z,30.2791,-87.5561,82.4,1111122 
DISL,ioos:station:DISL:PPTA:1,2013-06-03T08:30:00Z,30.2791,-87.5561,82.7,1111122 
DISL,ioos:station:DISL:PPTA:1,2013-06-03T09:00:00Z,30.2791,-87.5561,83.2,1111122 
DISL,ioos:station:DISL:PPTA:1,2013-06-03T09:30:00Z,30.2791,-87.5561,83.6,1111122 
DISL,ioos:station:DISL:PPTA:1,2013-06-03T10:00:00Z,30.2791,-87.5561,83.8,1111122 
DISL,ioos:station:DISL:PPTA:1,2013-06-03T10:30:00Z,30.2791,-87.5561,84.0,1111122 
DISL,ioos:station:DISL:PPTA:1,2013-06-03T11:00:00Z,30.2791,-87.5561,84.2,1111122 
DISL,ioos:station:DISL:PPTA:1,2013-06-03T11:30:00Z,30.2791,-87.5561,83.9,1111122 
DISL,ioos:station:DISL:PPTA:1,2013-06-03T12:00:00Z,30.2791,-87.5561,83.2,1111122 
DISL,ioos:station:DISL:PPTA:1,2013-06-03T12:30:00Z,30.2791,-87.5561,80.8,1111122 
DISL,ioos:station:DISL:PPTA:1,2013-06-03T13:00:00Z,30.2791,-87.5561,78.06,1111122 
DISL,ioos:station:DISL:PPTA:1,2013-06-03T13:30:00Z,30.2791,-87.5561,79.63,1111122 
DISL,ioos:station:DISL:PPTA:1,2013-06-03T14:00:00Z,30.2791,-87.5561,76.19,1111122 
DISL,ioos:station:DISL:PPTA:1,2013-06-03T14:30:00Z,30.2791,-87.5561,72.12,1111122 
DISL,ioos:station:DISL:PPTA:1,2013-06-03T15:00:00Z,30.2791,-87.5561,72.25,1111122 
DISL,ioos:station:DISL:PPTA:1,2013-06-03T15:30:00Z,30.2791,-87.5561,72.18,1111122 
DISL,ioos:station:DISL:PPTA:1,2013-06-03T16:00:00Z,30.2791,-87.5561,67.49,1111122 
DISL,ioos:station:DISL:PPTA:1,2013-06-03T16:30:00Z,30.2791,-87.5561,72.44,1111122 
DISL,ioos:station:DISL:PPTA:1,2013-06-03T17:00:00Z,30.2791,-87.5561,75.41,1111122 
DISL,ioos:station:DISL:PPTA:1,2013-06-03T17:30:00Z,30.2791,-87.5561,85.6,1111122 
DISL,ioos:station:DISL:PPTA:1,2013-06-03T18:00:00Z,30.2791,-87.5561,85.5,1111122 
DISL,ioos:station:DISL:PPTA:1,2013-06-03T18:30:00Z,30.2791,-87.5561,82.6,1111122 
DISL,ioos:station:DISL:PPTA:1,2013-06-03T19:00:00Z,30.2791,-87.5561,71.08,1111122 
DISL,ioos:station:DISL:PPTA:1,2013-06-03T19:30:00Z,30.2791,-87.5561,66.46,1111122 
DISL,ioos:station:DISL:PPTA:1,2013-06-03T20:00:00Z,30.2791,-87.5561,64.35,1111122 
DISL,ioos:station:DISL:PPTA:1,2013-06-03T20:30:00Z,30.2791,-87.5561,67.5,1111122 
DISL,ioos:station:DISL:PPTA:1,2013-06-03T21:00:00Z,30.2791,-87.5561,69.3,1111122 
DISL,ioos:station:DISL:PPTA:1,2013-06-03T21:30:00Z,30.2791,-87.5561,69.51,1111122 
DISL,ioos:station:DISL:PPTA:1,2013-06-03T22:00:00Z,30.2791,-87.5561,68.89,1111122 
DISL,ioos:station:DISL:PPTA:1,2013-06-03T22:30:00Z,30.2791,-87.5561,68.09,1111122 
DISL,ioos:station:DISL:PPTA:1,2013-06-03T23:00:00Z,30.2791,-87.5561,65.33,1111122 
DISL,ioos:station:DISL:PPTA:1,2013-06-03T23:30:00Z,30.2791,-87.5561,67.48,1111122 
DISL,ioos:station:DISL:PPTA:1,2013-06-04T00:00:00Z,30.2791,-87.5561,67.48,1111122 
DISL,ioos:station:DISL:PPTA:1,2013-06-04T00:30:00Z,30.2791,-87.5561,70.11,1111122 
DISL,ioos:station:DISL:PPTA:1,2013-06-04T01:00:00Z,30.2791,-87.5561,72.36,1111122 
DISL,ioos:station:DISL:PPTA:1,2013-06-04T01:30:00Z,30.2791,-87.5561,72.1,1111122 
DISL,ioos:station:DISL:PPTA:1,2013-06-04T02:00:00Z,30.2791,-87.5561,73.68,1111122 
DISL,ioos:station:DISL:PPTA:1,2013-06-04T02:30:00Z,30.2791,-87.5561,71.67,1111122 
DISL,ioos:station:DISL:PPTA:1,2013-06-04T03:00:00Z,30.2791,-87.5561,74.33,1111122 
DISL,ioos:station:DISL:PPTA:1,2013-06-04T03:30:00Z,30.2791,-87.5561,74.33,1111122 
DISL,ioos:station:DISL:PPTA:1,2013-06-04T04:00:00Z,30.2791,-87.5561,75.86,1111122 
DISL,ioos:station:DISL:PPTA:1,2013-06-04T04:30:00Z,30.2791,-87.5561,76.34,1111122 
DISL,ioos:station:DISL:PPTA:1,2013-06-04T05:00:00Z,30.2791,-87.5561,79.51,1111122 
DISL,ioos:station:DISL:PPTA:1,2013-06-04T05:30:00Z,30.2791,-87.5561,79.82,1111122 
DISL,ioos:station:DISL:PPTA:1,2013-06-04T06:00:00Z,30.2791,-87.5561,79.75,1111122 
DISL,ioos:station:DISL:PPTA:1,2013-06-04T06:30:00Z,30.2791,-87.5561,79.3,1111122 
DISL,ioos:station:DISL:PPTA:1,2013-06-04T07:00:00Z,30.2791,-87.5561,77.85,1111122 
DISL,ioos:station:DISL:PPTA:1,2013-06-04T07:30:00Z,30.2791,-87.5561,79.02,1111122 
DISL,ioos:station:DISL:PPTA:1,2013-06-04T08:00:00Z,30.2791,-87.5561,79.91,1111122 
DISL,ioos:station:DISL:PPTA:1,2013-06-04T08:30:00Z,30.2791,-87.5561,80.0,1111122 
DISL,ioos:station:DISL:PPTA:1,2013-06-04T09:00:00Z,30.2791,-87.5561,80.8,1111122 
DISL,ioos:station:DISL:PPTA:1,2013-06-04T09:30:00Z,30.2791,-87.5561,81.2,1111122 
DISL,ioos:station:DISL:PPTA:1,2013-06-04T10:00:00Z,30.2791,-87.5561,82.8,1111122 
DISL,ioos:station:DISL:PPTA:1,2013-06-04T10:30:00Z,30.2791,-87.5561,82.3,1111122 
DISL,ioos:station:DISL:PPTA:1,2013-06-04T11:00:00Z,30.2791,-87.5561,86.6,1111122 
DISL,ioos:station:DISL:PPTA:1,2013-06-04T11:30:00Z,30.2791,-87.5561,88.5,1111122 
DISL,ioos:station:DISL:PPTA:1,2013-06-04T12:00:00Z,30.2791,-87.5561,88.7,1111122 
DISL,ioos:station:DISL:PPTA:1,2013-06-04T12:30:00Z,30.2791,-87.5561,86.6,1111122 
DISL,ioos:station:DISL:PPTA:1,2013-06-04T13:00:00Z,30.2791,-87.5561,84.3,1111122 
DISL,ioos:station:DISL:PPTA:1,2013-06-04T13:30:00Z,30.2791,-87.5561,80.7,1111122 
DISL,ioos:station:DISL:PPTA:1,2013-06-04T14:00:00Z,30.2791,-87.5561,74.74,1111122 
DISL,ioos:station:DISL:PPTA:1,2013-06-04T14:30:00Z,30.2791,-87.5561,74.86,1111122 
DISL,ioos:station:DISL:PPTA:1,2013-06-04T15:00:00Z,30.2791,-87.5561,74.7,1111122 
DISL,ioos:station:DISL:PPTA:1,2013-06-04T15:30:00Z,30.2791,-87.5561,74.56,1111122 
DISL,ioos:station:DISL:PPTA:1,2013-06-04T16:00:00Z,30.2791,-87.5561,75.0,1111122 
DISL,ioos:station:DISL:PPTA:1,2013-06-04T16:30:00Z,30.2791,-87.5561,72.59,1111122 
DISL,ioos:station:DISL:PPTA:1,2013-06-04T17:00:00Z,30.2791,-87.5561,71.83,1111122 
DISL,ioos:station:DISL:PPTA:1,2013-06-04T17:30:00Z,30.2791,-87.5561,75.92,1111122 
DISL,ioos:station:DISL:PPTA:1,2013-06-04T18:00:00Z,30.2791,-87.5561,71.73,1111122 
DISL,ioos:station:DISL:PPTA:1,2013-06-04T18:30:00Z,30.2791,-87.5561,70.37,1111122 
DISL,ioos:station:DISL:PPTA:1,2013-06-04T19:00:00Z,30.2791,-87.5561,69.01,1111122 
DISL,ioos:station:DISL:PPTA:1,2013-06-04T19:30:00Z,30.2791,-87.5561,67.07,1111122 
DISL,ioos:station:DISL:PPTA:1,2013-06-04T20:00:00Z,30.2791,-87.5561,68.67,1111122 
DISL,ioos:station:DISL:PPTA:1,2013-06-04T20:30:00Z,30.2791,-87.5561,67.83,1111122 
DISL,ioos:station:DISL:PPTA:1,2013-06-04T21:00:00Z,30.2791,-87.5561,70.19,1111122 
DISL,ioos:station:DISL:PPTA:1,2013-06-04T21:30:00Z,30.2791,-87.5561,68.38,1111122 
DISL,ioos:station:DISL:PPTA:1,2013-06-04T22:00:00Z,30.2791,-87.5561,71.35,1111122 
DISL,ioos:station:DISL:PPTA:1,2013-06-04T22:30:00Z,30.2791,-87.5561,69.88,1111122 
DISL,ioos:station:DISL:PPTA:1,2013-06-04T23:00:00Z,30.2791,-87.5561,73.25,1111122 
DISL,ioos:station:DISL:PPTA:1,2013-06-04T23:30:00Z,30.2791,-87.5561,73.85,1111122 
DISL,ioos:station:DISL:PPTA:1,2013-06-05T00:00:00Z,30.2791,-87.5561,77.71,1111122 
DISL,ioos:station:DISL:PPTA:1,2013-06-05T00:30:00Z,30.2791,-87.5561,78.66,1111122 
DISL,ioos:station:DISL:PPTA:1,2013-06-05T01:00:00Z,30.2791,-87.5561,77.65,1111122 
DISL,ioos:station:DISL:PPTA:1,2013-06-05T01:30:00Z,30.2791,-87.5561,80.0,1111122 
DISL,ioos:station:DISL:PPTA:1,2013-06-05T02:00:00Z,30.2791,-87.5561,79.99,1111122 
DISL,ioos:station:DISL:PPTA:1,2013-06-05T02:30:00Z,30.2791,-87.5561,80.3,1111122 
DISL,ioos:station:DISL:PPTA:1,2013-06-05T03:00:00Z,30.2791,-87.5561,80.8,1111122 
DISL,ioos:station:DISL:PPTA:1,2013-06-05T03:30:00Z,30.2791,-87.5561,78.38,1111122 
DISL,ioos:station:DISL:PPTA:1,2013-06-05T04:00:00Z,30.2791,-87.5561,79.85,1111122 
DISL,ioos:station:DISL:PPTA:1,2013-06-05T04:30:00Z,30.2791,-87.5561,79.17,1111122 
DISL,ioos:station:DISL:PPTA:1,2013-06-05T05:00:00Z,30.2791,-87.5561,77.12,1111122 
DISL,ioos:station:DISL:PPTA:1,2013-06-05T05:30:00Z,30.2791,-87.5561,79.68,1111122 
DISL,ioos:station:DISL:PPTA:1,2013-06-05T06:00:00Z,30.2791,-87.5561,80.1,1111122 
DISL,ioos:station:DISL:PPTA:1,2013-06-05T06:30:00Z,30.2791,-87.5561,79.34,1111122 
DISL,ioos:station:DISL:PPTA:1,2013-06-05T07:00:00Z,30.2791,-87.5561,78.43,1111122 
DISL,ioos:station:DISL:PPTA:1,2013-06-05T07:30:00Z,30.2791,-87.5561,80.2,1111122 
DISL,ioos:station:DISL:PPTA:1,2013-06-05T08:00:00Z,30.2791,-87.5561,80.2,1111122 
DISL,ioos:station:DISL:PPTA:1,2013-06-05T08:30:00Z,30.2791,-87.5561,80.5,1111122 
DISL,ioos:station:DISL:PPTA:1,2013-06-05T09:00:00Z,30.2791,-87.5561,80.1,1111122 
DISL,ioos:station:DISL:PPTA:1,2013-06-05T09:30:00Z,30.2791,-87.5561,79.57,1111122 
DISL,ioos:station:DISL:PPTA:1,2013-06-05T10:00:00Z,30.2791,-87.5561,79.46,1111122 
DISL,ioos:station:DISL:PPTA:1,2013-06-05T10:30:00Z,30.2791,-87.5561,77.9,1111122 
DISL,ioos:station:DISL:PPTA:1,2013-06-05T11:00:00Z,30.2791,-87.5561,78.79,1111122 
DISL,ioos:station:DISL:PPTA:1,2013-06-05T11:30:00Z,30.2791,-87.5561,79.16,1111122 
DISL,ioos:station:DISL:PPTA:1,2013-06-05T12:00:00Z,30.2791,-87.5561,78.78,1111122 
DISL,ioos:station:DISL:PPTA:1,2013-06-05T12:30:00Z,30.2791,-87.5561,80.1,1111122 
DISL,ioos:station:DISL:PPTA:1,2013-06-05T13:00:00Z,30.2791,-87.5561,80.6,1111122 
DISL,ioos:station:DISL:PPTA:1,2013-06-05T13:30:00Z,30.2791,-87.5561,78.11,1111122 
DISL,ioos:station:DISL:PPTA:1,2013-06-05T14:00:00Z,30.2791,-87.5561,76.12,1111122 
DISL,ioos:station:DISL:PPTA:1,2013-06-05T14:30:00Z,30.2791,-87.5561,73.33,1111122 
DISL,ioos:station:DISL:PPTA:1,2013-06-05T15:00:00Z,30.2791,-87.5561,74.72,1111122 
DISL,ioos:station:DISL:PPTA:1,2013-06-05T15:30:00Z,30.2791,-87.5561,73.65,1111122 
DISL,ioos:station:DISL:PPTA:1,2013-06-05T16:00:00Z,30.2791,-87.5561,73.77,1111122 
DISL,ioos:station:DISL:PPTA:1,2013-06-05T16:30:00Z,30.2791,-87.5561,72.65,1111122 
DISL,ioos:station:DISL:PPTA:1,2013-06-05T17:00:00Z,30.2791,-87.5561,72.68,1111122 
DISL,ioos:station:DISL:PPTA:1,2013-06-05T17:30:00Z,30.2791,-87.5561,71.22,1111122 
DISL,ioos:station:DISL:PPTA:1,2013-06-05T18:00:00Z,30.2791,-87.5561,71.05,1111122 
DISL,ioos:station:DISL:PPTA:1,2013-06-05T18:30:00Z,30.2791,-87.5561,71.22,1111122 
DISL,ioos:station:DISL:PPTA:1,2013-06-05T19:00:00Z,30.2791,-87.5561,71.07,1111122 
DISL,ioos:station:DISL:PPTA:1,2013-06-05T19:30:00Z,30.2791,-87.5561,72.23,1111122 
DISL,ioos:station:DISL:PPTA:1,2013-06-05T20:00:00Z,30.2791,-87.5561,71.48,1111122 
DISL,ioos:station:DISL:PPTA:1,2013-06-05T20:30:00Z,30.2791,-87.5561,67.02,1111122 
DISL,ioos:station:DISL:PPTA:1,2013-06-05T21:00:00Z,30.2791,-87.5561,65.79,1111122 
DISL,ioos:station:DISL:PPTA:1,2013-06-05T21:30:00Z,30.2791,-87.5561,68.25,1111122 
DISL,ioos:station:DISL:PPTA:1,2013-06-05T22:00:00Z,30.2791,-87.5561,69.99,1111122 
DISL,ioos:station:DISL:PPTA:1,2013-06-05T22:30:00Z,30.2791,-87.5561,70.38,1111122 
DISL,ioos:station:DISL:PPTA:1,2013-06-05T23:00:00Z,30.2791,-87.5561,73.04,1111122 
DISL,ioos:station:DISL:PPTA:1,2013-06-05T23:30:00Z,30.2791,-87.5561,73.11,1111122 
DISL,ioos:station:DISL:PPTA:1,2013-06-06T00:00:00Z,30.2791,-87.5561,73.96,1111122 
DISL,ioos:station:DISL:PPTA:1,2013-06-06T00:30:00Z,30.2791,-87.5561,63.6,1111122 
DISL,ioos:station:DISL:PPTA:1,2013-06-06T01:00:00Z,30.2791,-87.5561,70.3,1111122 
DISL,ioos:station:DISL:PPTA:1,2013-06-06T01:30:00Z,30.2791,-87.5561,72.01,1111122 
DISL,ioos:station:DISL:PPTA:1,2013-06-06T02:00:00Z,30.2791,-87.5561,74.97,1111122 
DISL,ioos:station:DISL:PPTA:1,2013-06-06T02:30:00Z,30.2791,-87.5561,73.44,1111122 
DISL,ioos:station:DISL:PPTA:1,2013-06-06T03:00:00Z,30.2791,-87.5561,70.34,1111122 
DISL,ioos:station:DISL:PPTA:1,2013-06-06T03:30:00Z,30.2791,-87.5561,71.74,1111122 
DISL,ioos:station:DISL:PPTA:1,2013-06-06T04:00:00Z,30.2791,-87.5561,71.4,1111122 
DISL,ioos:station:DISL:PPTA:1,2013-06-06T04:30:00Z,30.2791,-87.5561,73.85,1111122 
DISL,ioos:station:DISL:PPTA:1,2013-06-06T05:00:00Z,30.2791,-87.5561,77.0,1111122 
DISL,ioos:station:DISL:PPTA:1,2013-06-06T05:30:00Z,30.2791,-87.5561,76.26,1111122 
DISL,ioos:station:DISL:PPTA:1,2013-06-06T06:00:00Z,30.2791,-87.5561,75.25,1111122 
DISL,ioos:station:DISL:PPTA:1,2013-06-06T06:30:00Z,30.2791,-87.5561,65.63,1111122 
DISL,ioos:station:DISL:PPTA:1,2013-06-06T07:00:00Z,30.2791,-87.5561,64.84,1111122 
DISL,ioos:station:DISL:PPTA:1,2013-06-06T07:30:00Z,30.2791,-87.5561,66.92,1111122 
DISL,ioos:station:DISL:PPTA:1,2013-06-06T08:00:00Z,30.2791,-87.5561,72.78,1111122 
DISL,ioos:station:DISL:PPTA:1,2013-06-06T08:30:00Z,30.2791,-87.5561,79.85,1111122 
DISL,ioos:station:DISL:PPTA:1,2013-06-06T09:00:00Z,30.2791,-87.5561,84.3,1111122 
DISL,ioos:station:DISL:PPTA:1,2013-06-06T09:30:00Z,30.2791,-87.5561,85.4,1111122 
DISL,ioos:station:DISL:PPTA:1,2013-06-06T10:00:00Z,30.2791,-87.5561,84.4,1111122 
DISL,ioos:station:DISL:PPTA:1,2013-06-06T10:30:00Z,30.2791,-87.5561,83.4,1111122 
DISL,ioos:station:DISL:PPTA:1,2013-06-06T11:00:00Z,30.2791,-87.5561,86.0,1111122 
DISL,ioos:station:DISL:PPTA:1,2013-06-06T11:30:00Z,30.2791,-87.5561,84.4,1111122 
DISL,ioos:station:DISL:PPTA:1,2013-06-06T12:00:00Z,30.2791,-87.5561,83.6,1111122 
DISL,ioos:station:DISL:PPTA:1,2013-06-06T12:30:00Z,30.2791,-87.5561,83.6,1111122 
DISL,ioos:station:DISL:PPTA:1,2013-06-06T13:00:00Z,30.2791,-87.5561,79.6,1111122 
DISL,ioos:station:DISL:PPTA:1,2013-06-06T14:00:00Z,30.2791,-87.5561,79.97,1111122 
DISL,ioos:station:DISL:PPTA:1,2013-06-06T14:30:00Z,30.2791,-87.5561,78.42,1111122 
DISL,ioos:station:DISL:PPTA:1,2013-06-06T15:00:00Z,30.2791,-87.5561,77.87,1111122 
DISL,ioos:station:DISL:PPTA:1,2013-06-06T15:30:00Z,30.2791,-87.5561,76.98,1111122 
DISL,ioos:station:DISL:PPTA:1,2013-06-06T16:00:00Z,30.2791,-87.5561,73.0,1111122 
DISL,ioos:station:DISL:PPTA:1,2013-06-06T16:30:00Z,30.2791,-87.5561,70.87,1111122 
DISL,ioos:station:DISL:PPTA:1,2013-06-06T17:00:00Z,30.2791,-87.5561,69.73,1111122 
DISL,ioos:station:DISL:PPTA:1,2013-06-06T17:30:00Z,30.2791,-87.5561,67.99,1111122 
DISL,ioos:station:DISL:PPTA:1,2013-06-06T18:00:00Z,30.2791,-87.5561,63.99,1111122 
DISL,ioos:station:DISL:PPTA:1,2013-06-06T18:30:00Z,30.2791,-87.5561,57.44,1111122 
DISL,ioos:station:DISL:PPTA:1,2013-06-06T19:00:00Z,30.2791,-87.5561,56.87,1111122 
DISL,ioos:station:DISL:PPTA:1,2013-06-06T19:30:00Z,30.2791,-87.5561,58.47,1111122 
DISL,ioos:station:DISL:PPTA:1,2013-06-06T20:00:00Z,30.2791,-87.5561,52.64,1111122 
DISL,ioos:station:DISL:PPTA:1,2013-06-06T20:30:00Z,30.2791,-87.5561,48.55,1111122 
DISL,ioos:station:DISL:PPTA:1,2013-06-06T21:00:00Z,30.2791,-87.5561,47.97,1111122 
DISL,ioos:station:DISL:PPTA:1,2013-06-06T21:30:00Z,30.2791,-87.5561,49.64,1111122 
DISL,ioos:station:DISL:PPTA:1,2013-06-06T22:00:00Z,30.2791,-87.5561,51.55,1111122 
DISL,ioos:station:DISL:PPTA:1,2013-06-06T22:30:00Z,30.2791,-87.5561,49.44,1111122 
DISL,ioos:station:DISL:PPTA:1,2013-06-06T23:00:00Z,30.2791,-87.5561,50.94,1111122 
DISL,ioos:station:DISL:PPTA:1,2013-06-06T23:30:00Z,30.2791,-87.5561,51.79,1111122 
DISL,ioos:station:DISL:PPTA:1,2013-06-07T00:00:00Z,30.2791,-87.5561,57.41,1111122 
DISL,ioos:station:DISL:PPTA:1,2013-06-07T00:30:00Z,30.2791,-87.5561,57.99,1111122 